Date,TemperatureHighF,TemperatureAvgF,TemperatureLowF,DewpointHighF,DewpointAvgF,DewpointLowF,HumidityHigh,HumidityAvg,HumidityLow,PressureMaxIn,PressureMinIn,WindSpeedMaxMPH,WindSpeedAvgMPH,GustSpeedMaxMPH,PrecipitationSumIn
2013-1-1,39.3,36.0,27.3,31.7,27.9,15.6,82,72,60,30.00,29.82,10,2,11,0.00
2013-1-2,33.6,27.3,22.7,20.1,16.8,13.6,72,65,55,30.17,29.98,8,1,14,0.00
2013-1-3,33.7,27.3,21.5,21.3,18.6,16.9,83,70,57,30.18,30.05,5,1,11,0.00
2013-1-4,37.2,33.2,27.0,25.4,23.5,19.8,75,67,61,30.07,29.95,11,3,16,0.00
2013-1-5,42.6,33.9,27.5,26.5,23.6,20.7,83,66,52,30.28,30.01,11,2,14,0.00
2013-1-6,47.1,38.0,29.9,34.5,29.9,25.0,93,74,55,30.20,29.95,6,1,12,0.00
2013-1-7,46.0,35.7,24.7,32.7,26.8,21.3,92,72,50,30.37,30.03,10,1,15,0.00
2013-1-8,48.7,32.9,21.0,35.6,27.0,18.7,93,80,58,30.40,30.31,5,0,10,0.00
2013-1-9,48.2,36.8,24.7,40.0,32.1,22.7,94,84,71,30.36,30.12,6,1,10,0.00
2013-1-10,49.2,41.0,32.3,34.6,29.5,25.9,83,64,47,30.52,30.23,7,1,11,0.00
2013-1-11,46.0,39.7,31.2,44.1,35.1,26.8,97,84,67,30.50,30.05,3,0,4,0.44
2013-1-12,47.4,44.7,41.7,45.8,43.5,40.9,97,96,93,30.14,30.05,3,0,5,0.00
2013-1-13,45.1,-25.3,-90.0,44.5,-25.6,-90.0,98,98,97,30.12,29.98,2,0,3,0.01
2013-1-14,55.8,-31.0,-90.0,48.6,-35.4,-95.0,98,85,56,30.28,29.88,9,1,10,0.07
2013-1-15,39.2,37.5,34.5,35.8,31.9,29.0,93,81,72,30.32,30.17,10,0,12,0.16
2013-1-16,35.6,33.8,32.1,34.5,32.5,30.7,100,95,90,30.18,29.78,5,0,8,0.81
2013-1-17,43.4,39.0,35.5,34.9,31.3,26.9,95,74,61,30.06,29.89,10,1,11,0.02
2013-1-18,35.9,28.9,22.6,27.1,16.0,9.7,77,59,42,30.46,29.97,15,1,16,0.00
2013-1-19,50.8,35.9,22.1,32.3,25.8,15.3,85,68,48,30.39,29.91,12,2,19,0.00
2013-1-20,54.3,41.9,30.0,35.4,26.6,15.2,77,56,32,30.02,29.67,16,4,26,0.00
2013-1-21,31.7,27.6,20.9,19.4,15.0,12.2,78,59,50,30.07,29.83,7,1,11,0.00
2013-1-22,25.7,18.6,12.6,12.9,2.8,-2.0,61,50,39,30.21,29.83,22,6,24,0.00
2013-1-23,20.5,13.6,8.6,6.6,1.5,-2.0,83,58,43,30.24,30.15,12,2,14,0.00
2013-1-24,24.5,16.2,7.3,8.7,4.2,1.4,86,61,37,30.42,30.11,12,2,18,0.00
2013-1-25,23.1,16.4,9.5,15.8,7.0,0.0,89,68,49,30.43,30.05,11,1,14,0.01
2013-1-26,28.2,18.5,7.4,14.7,9.7,4.8,90,70,48,30.37,30.04,12,1,13,0.00
2013-1-27,34.4,22.2,10.8,17.2,12.5,6.2,84,67,45,30.52,30.37,9,1,13,0.00
2013-1-28,33.8,28.9,18.7,32.5,25.8,13.3,96,88,78,30.47,29.99,5,0,9,0.13
2013-1-29,52.4,41.7,32.9,45.6,39.1,31.6,97,91,75,30.11,29.98,7,0,7,0.00
2013-1-30,67.3,24.3,-90.0,61.2,22.4,-92.0,98,93,78,30.04,29.31,18,2,21,0.10
2013-1-31,62.4,44.3,28.1,60.3,34.0,14.7,96,68,47,29.79,29.02,22,8,28,0.89
2013-2-1,31.1,27.5,22.3,17.6,14.3,9.1,68,58,41,30.23,29.79,17,4,19,0.00
2013-2-2,29.9,21.2,16.3,20.8,10.2,8.1,90,63,45,30.29,30.03,10,2,15,0.02
2013-2-3,30.8,25.4,22.5,23.8,20.9,18.6,92,83,70,30.02,29.78,4,0,7,0.01
2013-2-4,30.4,25.7,21.6,24.6,14.4,12.3,89,63,48,29.98,29.80,14,3,17,0.00
2013-2-5,31.5,28.9,25.1,28.2,25.6,20.1,93,87,81,29.95,29.86,6,0,6,0.01
2013-2-6,40.1,31.9,24.7,28.5,24.2,14.8,95,75,53,30.33,29.90,11,2,18,0.00
2013-2-7,33.5,28.0,18.9,23.8,17.6,13.6,83,65,51,30.47,30.28,5,0,9,0.00
2013-2-8,35.5,32.7,29.4,32.4,29.3,23.3,95,88,71,30.27,29.64,14,2,19,0.43
2013-2-9,33.4,27.8,20.2,29.5,19.5,8.9,96,72,48,30.34,29.74,12,2,20,0.17
2013-2-10,37.9,24.5,11.5,22.4,14.6,7.0,84,67,42,30.46,30.29,3,0,6,0.00
2013-2-11,39.6,35.0,28.9,38.8,32.6,22.0,97,91,75,30.30,29.63,0,0,5,0.27
2013-2-12,44.1,39.1,30.5,37.4,29.0,24.3,97,68,55,29.95,29.72,16,3,19,0.00
2013-2-13,42.9,33.9,23.3,31.8,27.0,20.5,94,77,58,29.94,29.65,4,0,7,0.06
2013-2-14,46.4,36.2,29.2,36.8,30.6,26.0,96,82,53,29.98,29.69,6,0,10,0.00
2013-2-15,55.8,40.3,26.6,38.3,32.1,24.8,95,75,48,29.99,29.88,11,1,17,0.00
2013-2-16,39.1,35.0,29.6,34.6,26.8,15.0,95,73,54,29.95,29.73,8,1,17,0.02
2013-2-17,32.3,26.7,18.7,15.0,9.4,3.1,57,48,39,30.02,29.69,17,5,30,0.00
2013-2-18,35.7,24.9,16.5,16.6,9.4,3.3,62,52,41,30.25,30.02,13,4,20,0.00
2013-2-19,47.5,35.5,22.5,42.1,30.3,15.8,96,82,55,30.17,29.66,20,2,29,0.20
2013-2-20,36.3,29.7,24.6,28.1,16.8,12.4,72,58,49,29.99,29.72,16,6,22,0.00
2013-2-21,35.7,28.2,23.3,19.4,15.9,12.2,70,60,49,30.27,29.97,14,4,22,0.00
2013-2-22,37.0,30.2,21.6,29.5,22.7,14.9,83,74,62,30.38,30.23,3,0,5,0.00
2013-2-23,43.4,39.1,33.9,42.6,37.8,29.3,97,95,83,30.24,29.78,5,0,10,0.06
2013-2-24,47.3,38.1,31.3,39.6,32.1,23.1,96,80,59,29.97,29.73,12,2,19,0.00
2013-2-25,43.8,35.2,25.9,31.7,27.1,22.0,87,73,59,30.21,29.98,7,0,10,0.00
2013-2-26,44.1,35.7,25.9,35.2,30.7,23.4,94,82,68,30.25,29.81,12,1,14,0.13
2013-2-27,48.9,42.5,36.6,46.5,39.8,35.0,97,91,75,29.83,29.47,17,2,24,0.38
2013-2-28,47.7,41.3,34.8,38.4,35.0,29.8,94,79,55,29.61,29.52,7,1,12,0.00
2013-3-1,45.5,38.1,30.7,32.4,30.1,26.6,92,74,57,29.77,29.60,13,2,14,0.00
2013-3-2,39.1,34.5,29.7,27.2,25.1,22.1,77,68,60,29.78,29.69,9,2,14,0.00
2013-3-3,37.4,32.0,28.3,23.9,21.1,18.0,72,64,55,29.77,29.67,11,3,16,0.00
2013-3-4,42.5,33.8,27.5,25.3,21.5,17.5,70,61,48,29.91,29.76,14,4,19,0.00
2013-3-5,49.8,38.5,29.4,31.4,26.6,22.2,76,63,47,30.00,29.91,6,1,15,0.00
2013-3-6,41.8,39.1,35.8,36.0,32.7,29.0,87,78,67,29.93,29.78,22,4,30,0.01
2013-3-7,42.1,37.3,33.0,35.0,30.5,26.8,92,77,65,30.07,29.90,16,2,17,0.04
2013-3-8,43.1,35.1,29.7,36.0,31.0,28.0,96,86,66,30.18,29.99,9,1,12,0.13
2013-3-9,59.5,42.6,31.2,30.5,25.2,17.4,78,55,21,30.29,30.16,9,1,10,0.00
2013-3-10,53.0,38.5,26.2,40.4,32.0,23.4,92,78,62,30.35,30.25,5,0,10,0.00
2013-3-11,59.1,45.9,35.0,47.6,41.3,32.0,94,85,59,30.29,30.05,6,0,12,0.00
2013-3-12,58.0,52.6,44.5,57.1,50.0,38.5,97,91,78,30.04,29.63,16,2,21,0.59
2013-3-13,50.5,42.6,36.8,38.4,32.5,25.0,88,69,44,29.88,29.78,14,3,16,0.00
2013-3-14,42.1,35.2,30.3,24.9,17.4,13.0,62,49,34,29.96,29.83,18,5,24,0.00
2013-3-15,47.8,38.4,27.6,32.9,23.5,14.3,64,55,45,29.98,29.69,14,2,18,0.00
2013-3-16,44.6,36.4,33.0,33.0,29.0,24.5,93,75,63,29.89,29.74,4,0,6,0.06
2013-3-17,38.2,32.6,26.3,31.2,23.3,20.1,100,70,50,30.28,29.89,11,1,14,0.00
2013-3-18,37.2,31.2,27.2,32.3,23.1,12.3,95,73,53,30.37,29.95,7,1,13,0.42
2013-3-19,49.2,39.0,33.4,39.9,33.4,21.1,97,83,47,29.94,29.66,13,2,19,0.26
2013-3-20,46.7,38.3,31.1,27.1,22.6,20.0,69,54,39,29.88,29.75,15,3,19,0.00
2013-3-21,39.8,33.8,28.4,29.1,21.4,16.7,89,62,41,29.81,29.61,10,2,15,0.00
2013-3-22,42.4,33.4,25.3,25.7,21.2,15.7,75,61,46,29.88,29.73,14,3,17,0.00
2013-3-23,47.0,37.7,29.8,26.9,23.1,21.3,71,56,41,29.92,29.81,14,3,21,0.00
2013-3-24,47.4,38.4,25.7,28.6,24.2,20.3,80,57,42,29.94,29.67,7,1,13,0.00
2013-3-25,39.1,36.9,33.3,35.4,31.7,28.0,94,82,65,29.67,29.45,11,1,19,0.10
2013-3-26,51.4,41.7,33.7,36.1,32.6,29.5,94,73,45,29.85,29.58,7,1,13,0.00
2013-3-27,52.4,40.9,28.1,34.1,30.1,24.8,89,68,40,29.97,29.85,10,2,16,0.00
2013-3-28,50.5,42.0,28.8,33.6,31.1,25.7,90,66,49,30.09,29.95,8,1,14,0.00
2013-3-29,54.6,43.4,29.3,33.2,30.8,26.1,89,63,42,30.14,30.04,12,1,16,0.00
2013-3-30,59.0,44.5,28.8,35.1,29.5,25.4,91,60,29,30.16,30.03,12,1,17,0.00
2013-3-31,57.7,43.5,30.1,44.3,35.7,25.9,96,76,42,30.09,29.66,13,1,15,0.13
2013-4-1,63.4,48.2,37.2,48.9,37.9,16.2,98,71,38,29.90,29.60,17,3,22,0.00
2013-4-2,44.4,36.7,27.6,21.7,17.9,15.7,70,47,34,30.06,29.90,13,4,22,0.00
2013-4-3,46.9,37.5,29.2,22.3,17.8,14.7,61,45,32,30.28,30.06,16,3,21,0.00
2013-4-4,53.9,40.5,26.6,29.6,22.6,15.7,69,50,36,30.37,30.05,12,2,15,0.00
2013-4-5,64.1,48.5,39.3,34.5,29.6,23.5,80,51,27,30.05,29.69,11,2,20,0.00
2013-4-6,53.5,42.9,34.1,29.5,22.0,17.8,69,45,27,30.28,29.98,8,2,13,0.00
2013-4-7,63.7,48.9,35.4,46.1,36.8,28.8,81,65,40,30.28,29.95,19,3,21,0.00
2013-4-8,77.1,59.5,42.0,52.6,46.6,39.2,92,66,35,30.04,29.93,10,1,12,0.00
2013-4-9,83.5,68.7,52.6,57.6,49.9,44.1,86,56,26,29.94,29.84,18,2,20,0.00
2013-4-10,84.1,66.2,57.4,62.1,55.3,49.6,97,70,46,29.91,29.75,6,1,13,0.65
2013-4-11,60.5,56.2,47.2,59.9,52.7,42.9,98,89,73,29.98,29.72,9,1,10,0.01
2013-4-12,48.5,43.8,42.2,43.3,41.6,40.8,96,92,78,29.96,29.67,10,2,17,0.53
2013-4-13,59.5,49.1,38.1,44.8,40.0,36.7,97,74,47,29.95,29.72,12,2,14,0.02
2013-4-14,60.3,51.7,40.6,41.8,37.1,33.4,92,60,38,30.17,29.94,12,2,19,0.00
2013-4-15,59.7,50.9,43.9,42.5,37.1,31.2,77,59,50,30.33,30.17,6,0,9,0.00
2013-4-16,72.4,59.3,46.8,59.5,51.2,41.8,90,76,57,30.33,30.07,12,2,18,0.00
2013-4-17,72.9,62.5,52.5,57.5,47.0,37.5,94,61,29,30.25,30.06,7,0,11,0.00
2013-4-18,59.2,52.9,46.8,52.5,47.4,42.7,93,82,64,30.30,30.05,4,0,7,0.00
2013-4-19,79.3,66.6,54.7,67.3,61.5,52.7,96,85,64,30.05,29.58,17,3,21,0.21
2013-4-20,59.0,52.1,46.0,53.3,38.6,28.8,95,63,40,30.28,29.67,13,4,18,0.14
2013-4-21,56.2,45.2,35.0,33.2,27.8,22.5,68,51,35,30.59,30.28,6,0,9,0.00
2013-4-22,52.9,44.4,32.3,40.7,34.9,29.7,92,71,49,30.61,30.44,5,1,12,0.00
2013-4-23,51.1,45.0,40.4,43.9,38.5,33.4,88,78,71,30.44,30.09,5,0,11,0.00
2013-4-24,74.1,55.3,35.7,57.6,47.4,33.8,94,76,54,30.09,29.76,9,1,13,0.00
2013-4-25,64.9,55.1,44.5,55.5,37.0,32.7,84,53,31,30.24,29.82,13,2,18,0.00
2013-4-26,65.9,52.8,37.3,39.8,36.3,33.1,88,57,31,30.37,30.23,6,0,13,0.00
2013-4-27,69.8,54.9,37.0,41.4,37.2,33.2,92,55,32,30.40,30.23,5,0,9,0.00
2013-4-28,72.4,56.5,39.5,49.0,41.0,34.7,90,59,38,30.28,30.15,5,0,11,0.00
2013-4-29,55.8,53.2,51.2,52.1,50.0,44.2,97,89,65,30.20,30.13,2,0,3,0.12
2013-4-30,65.8,55.8,44.9,51.8,45.5,33.4,97,72,34,30.30,30.16,4,0,9,0.00
2013-5-1,67.2,53.5,36.5,49.9,41.5,34.1,92,67,37,30.45,30.30,3,0,7,0.00
2013-5-2,73.8,57.3,38.9,51.6,44.9,37.0,95,67,39,30.44,30.28,2,0,5,0.00
2013-5-3,66.0,56.2,46.8,48.8,44.7,39.8,85,67,48,30.41,30.31,2,0,6,0.00
2013-5-4,69.4,54.4,39.6,52.1,44.6,37.7,94,72,47,30.34,30.18,4,0,6,0.00
2013-5-5,62.5,51.9,41.9,49.6,43.9,39.1,92,76,58,30.26,30.18,3,0,6,0.00
2013-5-6,68.4,56.2,45.2,56.8,49.7,41.8,91,80,64,30.23,30.11,2,0,5,0.00
2013-5-7,71.3,59.7,47.4,63.3,54.9,45.1,94,85,73,30.14,30.04,4,0,5,0.00
2013-5-8,71.3,61.0,55.1,65.5,59.3,53.1,98,94,80,30.05,29.90,3,0,9,0.84
2013-5-9,69.4,60.5,54.6,60.3,56.6,52.6,98,88,67,29.96,29.86,4,0,7,0.21
2013-5-10,81.7,66.9,49.7,63.7,57.8,48.8,98,76,44,29.97,29.85,5,0,9,0.03
2013-5-11,74.0,64.9,60.6,67.2,63.1,59.1,98,94,77,29.88,29.67,9,1,20,0.59
2013-5-12,67.2,60.1,49.7,59.6,45.6,32.7,96,62,32,29.93,29.64,14,3,21,0.00
2013-5-13,56.0,48.9,40.1,36.6,33.5,29.7,79,57,38,30.09,29.93,10,2,15,0.00
2013-5-14,61.8,49.4,35.7,37.7,33.6,29.3,88,59,31,30.13,30.00,9,1,13,0.00
2013-5-15,75.9,59.3,43.1,61.1,50.0,36.2,84,72,57,30.04,29.65,5,0,11,0.00
2013-5-16,82.2,68.0,56.2,65.0,59.0,53.4,95,75,52,29.80,29.67,6,1,11,0.00
2013-5-17,74.5,62.8,50.3,55.7,47.7,43.6,88,60,37,30.16,29.80,7,0,10,0.00
2013-5-18,67.4,58.8,52.6,58.5,53.3,47.5,90,82,67,30.27,30.16,3,0,3,0.01
2013-5-19,59.1,57.5,55.3,58.5,56.6,54.1,98,97,90,30.26,30.13,1,0,3,0.21
2013-5-20,79.5,67.3,57.4,70.1,63.8,56.8,99,90,72,30.15,29.92,5,0,6,0.00
2013-5-21,86.7,73.7,60.1,74.7,67.9,59.1,98,84,65,29.94,29.80,6,1,10,0.00
2013-5-22,86.5,73.4,64.5,75.8,68.7,62.4,97,86,61,29.89,29.77,5,0,7,0.00
2013-5-23,81.5,73.1,69.2,73.7,69.3,66.7,94,89,68,29.84,29.71,7,1,15,0.07
2013-5-24,69.1,54.8,44.7,66.9,52.5,41.9,100,92,78,29.96,29.66,7,1,15,0.21
2013-5-25,59.3,51.2,43.2,45.9,41.8,37.7,95,73,50,30.00,29.91,18,2,22,0.19
2013-5-26,69.8,57.9,47.1,44.6,40.2,36.4,76,54,34,30.18,29.98,14,2,19,0.00
2013-5-27,74.6,59.6,40.7,48.6,43.1,37.5,90,58,33,30.23,30.10,9,1,15,0.00
2013-5-28,62.3,56.9,49.4,58.4,53.7,46.6,98,89,73,30.19,30.09,1,0,3,0.19
2013-5-29,89.2,71.4,59.0,74.7,64.7,58.4,99,82,52,30.09,29.96,6,1,13,0.03
2013-5-30,93.0,80.3,66.6,72.0,68.1,64.8,96,69,44,30.11,30.02,7,1,10,0.00
2013-5-31,92.7,80.6,66.3,74.0,68.0,64.4,95,68,42,30.10,29.95,5,0,7,0.00
2013-6-1,92.0,80.3,66.6,73.4,69.1,64.5,95,71,47,29.99,29.85,7,1,11,0.00
2013-6-2,88.7,80.5,71.9,74.0,70.7,66.9,88,73,56,29.87,29.74,10,2,12,0.00
2013-6-3,82.2,73.4,68.0,70.6,67.5,54.4,98,83,60,29.85,29.75,10,0,13,0.07
2013-6-4,76.6,66.2,56.4,54.8,49.3,47.0,73,56,39,30.08,29.85,11,1,12,0.00
2013-6-5,77.1,63.9,48.9,57.0,51.4,45.4,88,66,46,30.18,30.07,2,0,4,0.00
2013-6-6,73.2,63.4,54.8,61.9,58.3,52.6,96,85,55,30.11,29.96,4,0,6,0.04
2013-6-7,63.7,61.5,60.1,63.4,60.9,59.3,100,98,96,29.96,29.56,3,0,7,0.12
2013-6-8,77.4,67.8,57.6,67.5,62.9,57.0,99,85,68,30.02,29.56,9,1,11,0.38
2013-6-9,83.3,70.8,57.3,65.2,61.7,55.9,96,75,51,30.14,30.02,8,0,9,0.18
2013-6-10,68.2,66.4,64.7,67.9,65.0,62.9,99,95,88,30.11,29.76,2,0,6,0.09
2013-6-11,82.0,54.6,-90.0,70.8,48.2,-90.0,100,82,63,29.76,29.60,14,2,16,0.04
2013-6-12,81.3,71.8,64.8,63.1,59.8,55.9,84,67,47,29.81,29.69,11,1,14,0.02
2013-6-13,67.8,63.2,57.3,65.2,61.1,56.1,97,93,84,29.81,29.38,3,0,11,0.00
2013-6-14,73.7,60.8,54.2,65.4,56.4,51.4,97,87,63,29.88,29.50,6,0,11,0.00
2013-6-15,81.8,68.3,53.5,63.0,58.1,52.6,98,74,44,29.99,29.87,10,1,12,0.00
2013-6-16,84.7,70.3,57.0,68.3,62.0,55.2,95,77,49,29.96,29.75,11,2,16,0.00
2013-6-17,87.4,74.0,63.6,73.0,67.1,62.1,96,81,53,29.89,29.80,5,1,12,0.00
2013-6-18,80.9,69.5,63.6,72.8,66.4,62.3,97,91,73,29.86,29.77,2,0,5,0.00
2013-6-19,78.7,68.2,59.6,63.0,57.0,52.5,97,71,42,30.13,29.84,4,0,9,0.00
2013-6-20,81.2,69.3,54.9,64.1,58.6,52.6,94,71,48,30.23,30.13,5,0,7,0.00
2013-6-21,83.3,70.6,55.9,63.5,58.2,53.2,92,67,47,30.28,30.19,5,0,7,0.00
2013-6-22,86.2,72.4,56.8,69.3,62.8,53.9,92,73,55,30.23,30.07,5,0,9,0.00
2013-6-23,88.8,75.9,64.0,76.2,68.8,61.3,93,80,57,30.16,30.01,6,1,10,0.02
2013-6-24,93.7,79.0,69.9,75.7,71.0,62.9,97,79,50,30.04,29.92,7,1,17,0.04
2013-6-25,93.0,77.2,66.6,76.1,69.7,64.8,95,80,52,29.97,29.82,16,1,16,0.00